Location: Az?znagar
(16.8373°N, 80.5091°E)
Time: 11:27:30
(UTC+00:00)

Cosmos 1812 - Pass Details

Date: 04 December 2021
Orbit: 513 x 519 km, 82.5° (Epoch: 27 January)

Event Time Altitude Azimuth Distance (km) Brightness Sun altitude
Rises 00:01:32 0° 357° (N) 2,631 6.1 -12.2°
Reaches altitude 10° 00:03:40 10° 358° (N) 1,741 5.2 -11.8°
Maximum altitude 00:07:29 80° 85° (E) 527 2.8 -10.9°
Drops below altitude 10° 00:11:17 10° 173° (S) 1,733 5.7 -10.0°
Sets 00:13:25 0° 174° (S) 2,617 6.7 -9.6°
